Altus AFB, OK

3:54 AM CDT on June 29, 2017 (GMT -0500)
Altus Air Force Base

Weather History for KLTS - March, 2013

Change the Weather History Date:

Tuesday, March 12, 2013

  Actual Average Record
Temperature  
Mean Temperature 47 °F -  
Max Temperature 59 °F 60 °F 87 °F (2003)
Min Temperature 36 °F 37 °F 19 °F (1998)
Degree Days  
Heating Degree Days 18    
Moisture  
Dew Point 33 °F    
Average Humidity 56    
Maximum Humidity 81    
Minimum Humidity 39    
Precipitation  
Precipitation 0.00 in - - ()
Sea Level Pressure  
Sea Level Pressure 30.18 in    
Wind  
Wind Speed 13 mph (ENE)    
Max Wind Speed 24 mph    
Max Gust Speed 31 mph    
Visibility 10 miles    
Events      
Averages and records for this station are not official NWS values.
T = Trace of Precipitation, MM = Missing Value Source: NWS Daily Summary

Daily Weather History Graph

Daily Weather History Graph

Search for Another Location

Airport or City:

Trip Planner

Search our weather history database for the weather conditions in past years. The results will help you decide how hot, cold, wet, or windy it might be!

Date:

Astronomy

Mar. 12, 2013 Rise Set
Actual Time 7:51 AM CDT 7:42 PM CDT
Civil Twilight 7:26 AM CDT 8:07 PM CDT
Nautical Twilight 6:57 AM CDT 8:36 PM CDT
Astronomical Twilight 6:27 AM CDT 9:06 PM CDT
Moon 8:02 AM CDT (3/12) 8:54 PM CDT (3/12)
Length of Visible Light 12h 41m
Length of Day
11h 51m
New Moon, 1% of the Moon is Illuminated
Mar 12
New Moon
Mar 19
First Quarter
Mar 27
Full
Apr 2
Last Quarter
Apr 10
New

Hourly Weather History & Observations

Time (CDT) Temp. Windchill Dew Point Humidity Pressure Visibility Wind Dir Wind Speed Gust Speed Precip Events Conditions
12:58 AM 44.4 °F 37.9 °F 29.8 °F 57% 29.98 in 10.0 mi ESE 13.8 mph - N/A   Clear
1:58 AM 44.4 °F 38.2 °F 28.9 °F 55% 29.99 in 10.0 mi ESE 12.7 mph - N/A   Clear
2:58 AM 43.0 °F 36.0 °F 28.9 °F 58% 29.98 in 10.0 mi East 13.8 mph - N/A   Clear
3:58 AM 42.4 °F 35.3 °F 28.4 °F 58% 29.96 in 10.0 mi East 13.8 mph - N/A   Clear
4:58 AM 42.1 °F 33.9 °F 28.2 °F 58% 29.95 in 10.0 mi East 17.3 mph - N/A   Clear
5:58 AM 43.3 °F 35.8 °F 26.4 °F 51% 30.01 in 10.0 mi NE 16.1 mph - N/A   Clear
6:58 AM 43.0 °F 35.4 °F 27.5 °F 54% 30.05 in 10.0 mi NE 16.1 mph - N/A   Clear
7:58 AM 36.5 °F 27.0 °F 29.3 °F 75% 30.10 in 10.0 mi NNE 16.1 mph - N/A   Clear
9:58 AM 44.6 °F 35.7 °F 27.3 °F 51% 30.22 in 10.0 mi NNE 24.2 mph 31.1 mph N/A   Clear
10:58 AM 49.5 °F - 26.6 °F 41% 30.25 in 10.0 mi NE 18.4 mph - N/A   Clear
11:58 AM 54.3 °F - 30.0 °F 39% 30.26 in 10.0 mi NE 12.7 mph - N/A   Clear
12:58 PM 56.8 °F - 32.5 °F 40% 30.26 in 10.0 mi ENE 12.7 mph - N/A   Partly Cloudy
1:58 PM 57.6 °F - 36.0 °F 44% 30.27 in 10.0 mi NNE 16.1 mph - N/A   Partly Cloudy
2:58 PM 57.7 °F - 36.5 °F 45% 30.25 in 10.0 mi NNE 16.1 mph - N/A   Partly Cloudy
3:58 PM 57.7 °F - 36.9 °F 46% 30.25 in 10.0 mi NE 12.7 mph - N/A   Partly Cloudy
4:58 PM 58.5 °F - 37.8 °F 46% 30.26 in 10.0 mi NE 12.7 mph - N/A   Clear
5:58 PM 58.1 °F - 37.6 °F 46% 30.27 in 10.0 mi NE 8.1 mph - N/A   Clear
6:58 PM 57.6 °F - 39.0 °F 50% 30.27 in 10.0 mi ENE 5.8 mph - N/A   Clear
7:58 PM 50.4 °F - 39.2 °F 66% 30.30 in 10.0 mi NE 4.6 mph - N/A   Clear
8:58 PM 46.6 °F - 37.4 °F 70% 30.32 in 10.0 mi NNE 6.9 mph - N/A   Clear
9:58 PM 43.9 °F 42.3 °F 36.1 °F 74% 30.33 in 10.0 mi SSE 3.5 mph - N/A   Clear
10:58 PM 44.8 °F 41.6 °F 36.5 °F 73% 30.35 in 10.0 mi NNE 5.8 mph - N/A   Clear
11:56 PM 41.0 °F - 35.6 °F 81% 30.35 in 10.0 mi Calm Calm - N/A   Clear